User: anonymous   Login
Location: Unspecified
(0.0000°N, 0.0000°E)
Time: 09:43:12
(UTC+00:00)
Language:

Meteor 2-5 - Orbit

View from above orbital plane
View from above orbital plane
View from above satellite
View from above satellite

Ground track
Ground track

The orbit data is extracted from the following two-line orbital elements,

1 11605U 79095A   18110.90495747 +.00000123 +00000-0 +66164-4 0  9992
2 11605 081.2099 248.5877 0011683 002.9602 357.1634 14.07060423974289
Epoch (UTC): 20 April 2018 21:43:08
Eccentricity: 0.0011683
inclination: 81.2099°
perigee height: 861 km
apogee height: 878 km
right ascension of ascending node: 248.5877°
argument of perigee: 2.9602°
revolutions per day: 14.07060423
mean anomaly at epoch: 357.1634°
orbit number at epoch: 97428

The dashed part of the orbit path shows where the satellite is in the earth's shadow,  

DLR